Вернуться в каталог

STARLINK-30387

АктивенСвязьVLEO
NORAD 57788·PAYLOAD·🇺🇸 United States

Запущен Sep 4, 2023 с Cape Canaveral Space Force Station

Loading…

Ближайшие Пролёты (ближайшие 24 часа)

TLE

СвежийSource: CelesTrak SupGP

Эпоха: Sep 14, 2026, 21:21 UTC

1 57788C 23134T   26257.89006944  .00005169  00000+0  18723-3 0  2571
2 57788  43.0022 194.5964 0001310 260.1314 181.3341 15.27576065    14

Отслеживайте STARLINK-30387 в реальном времени с AllMySat

Download on the App Store